Location: Monrovia
(34.7865°N, 86.7139°W)
Time: 21:35:13
(UTC+00:00)

USA 215 - Pass Details

Date: 14 July 2020
Orbit: 1102 x 1106 km, 123.0° (Epoch: 31 July)

Event Time Altitude Azimuth Distance (km) Brightness Sun altitude
Rises 03:35:00 0° 45° (NE) 3,921 6.3 -24.8°
Reaches altitude 10° 03:37:31 10° 48° (NE) 2,961 5.6 -25.1°
Maximum altitude 03:44:01 68° 131° (SE) 1,176 3.1 -25.9°
Enters shadow 03:46:27 41° 200° (SSW) 1,553 3.7 -26.1°
